Location: Joffre
(52.3362°N, 113.5373°W)
Time: 07:00:40
(UTC+00:00)

Envisat - Pass Details

Date: 27 November 2021
Orbit: 764 x 766 km, 98.2° (Epoch: 17 January)

Event Time Altitude Azimuth Distance (km) Brightness Sun altitude
Rises 11:31:49 0° 24° (NNE) 3,247 6.6 -33.3°
Reaches altitude 10° 11:34:40 10° 40° (NE) 2,315 6.0 -32.9°
Maximum altitude 11:38:34 22° 90° (E) 1,643 5.3 -32.3°
Drops below altitude 10° 11:42:26 10° 140° (SE) 2,301 5.8 -31.7°
Sets 11:45:15 0° 155° (SSE) 3,221 6.5 -31.3°
